Regional Weather Roundup
Issued by NWS Northern Indiana

Home | Current Version | Previous Version | Text Only | Print | Product List | Glossary On
Versions: 1 2 3 4 5 6 7 8 9 10 11 12 13 14 15 16 17 18 19 20 21 22 23 24 25 26 27 28 29 30 31 32 33 34 35 36 37 38 39 40 41 42 43 44 45 46 47 48 49 50
000
ASUS43 KIWX 240000
RWRIWX

KIWX WEATHER ROUNDUP
NATIONAL WEATHER SERVICE NORTHERN INDIANA
700 PM EST SUN NOV 23 2014

NOTE: "FAIR" INDICATES FEW OR NO CLOUDS BELOW 12,000 FEET WITH NO
SIGNIFICANT WEATHER AND/OR OBSTRUCTIONS TO VISIBILITY.

* THESE STATIONS ARE NOT UNDER NWS QUALITY CONTROL. THEY ALSO MAY NOT
  REPORT WEATHER SUCH AS PRECIPITATION OR FOG.

INZ001>027-240100-
NORTHERN INDIANA

CITY           SKY/WX    TMP DP  RH WIND       PRES   REMARKS
SOUTH BEND     RAIN      52  50  93 SE12      29.44F FOG
6HR MIN TEMP:  51; 6HR MAX TEMP:  55; 6HR PCP:  0.55;

GOSHEN         RAIN      52  50  93 SE13      29.43F FOG
6HR MIN TEMP:  51; 6HR MAX TEMP:  56; 6HR PCP:  0.83;

ANGOLA*        CLOUDY    50  39  66 SE9       29.48F
FORT WAYNE     LGT RAIN  51  49  92 E14       29.45F FOG
6HR MIN TEMP:  51; 6HR MAX TEMP:  56; 6HR PCP:  0.58;

PERU/GRISSOM   LGT RAIN  52  52 100 SE10      29.40F FOG

$$
INZ028>050-240100-
CENTRAL INDIANA

CITY           SKY/WX    TMP DP  RH WIND       PRES   REMARKS
LAFAYETTE      LGT RAIN  51  50  96 SE8       29.37F
6HR MIN TEMP:  50; 6HR MAX TEMP:  53; 6HR PCP:  0.39;

KOKOMO*        CLOUDY    52  48  87 SE15      29.40F
6HR MIN TEMP:  52; 6HR MAX TEMP:  54; 6HR PCP:  0.79;

MUNCIE*        RAIN      53  50  89 SE13G22   29.42F FOG
6HR MIN TEMP:  52; 6HR MAX TEMP:  58; 6HR PCP:  0.62;

INDIANAPOLIS   RAIN      51  50  96 SE13      29.38F FOG
6HR MIN TEMP:  50; 6HR MAX TEMP:  52; 6HR PCP:  0.78;


$$
MIZ043>046-050>051-056>058-064>065-071>073-077>080-240100-
SOUTHWEST LOWER MICHIGAN

CITY           SKY/WX    TMP DP  RH WIND       PRES   REMARKS
BATTLE CREEK   LGT RAIN  52  49  89 SE9       29.48F FOG
6HR MIN TEMP:  51; 6HR MAX TEMP:  53; 6HR PCP:  0.40;

BENTON HARBOR  RAIN      50  50 100 E8        29.42F FOG
6HR MIN TEMP:  50; 6HR MAX TEMP:  53; 6HR PCP:  0.49;

COLDWATER*     LGT RAIN  51  50  95 SE15      29.48F
6HR MIN TEMP:  51; 6HR MAX TEMP:  55;

HILLSDALE*     RAIN      51  50  99 SE8       29.51F
6HR MIN TEMP:  50; 6HR MAX TEMP:  55;

HOLLAND        RAIN      51  49  92 E10       29.46F FOG
6HR MIN TEMP:  50; 6HR MAX TEMP:  53; 6HR PCP:  0.41;

GRAND RAPIDS   RAIN      50  48  93 SE10      29.49F FOG
6HR MIN TEMP:  49; 6HR MAX TEMP:  52; 6HR PCP:  0.37;

KALAMAZOO      LGT RAIN  51  49  92 SE7       29.47F FOG
6HR MIN TEMP:  50; 6HR MAX TEMP:  53; 6HR PCP:  0.40;

STURGIS*       LGT RAIN  52  50  93 SE12G18   29.45F
THREE RIVERS*  RAIN      51  50  95 E6        29.45F

$$
OHZ001>008-015>018-024>025-240100-
NORTHWEST OHIO

CITY           SKY/WX    TMP DP  RH WIND       PRES   REMARKS
DEFIANCE       LGT RAIN  51  47  86 E7        29.50F
6HR MIN TEMP:  51; 6HR MAX TEMP:  59; 6HR PCP:  0.13;

FINDLAY        LGT RAIN  57  44  62 SE18G29   29.51F
6HR MIN TEMP:  57; 6HR MAX TEMP:  61; 6HR PCP: TRACE;

TOLEDO EXPRESS LGT RAIN  53  46  77 E10       29.52F
6HR MIN TEMP:  51; 6HR MAX TEMP:  58; 6HR PCP:  0.02;

TOLEDO METCALF LGT RAIN  52  45  77 SE9       29.55F
6HR MIN TEMP:  52; 6HR MAX TEMP:  60; 6HR PCP:  0.02;

LIMA           LGT RAIN  57  45  64 SE21G31   29.48F
6HR MIN TEMP:  57; 6HR MAX TEMP:  60; 6HR PCP: TRACE;


$$
AND FOR LAKE MICHIGAN COASTAL AND OPEN LAKE BUOY OBSERVATIONS

STATION/POSITION TEMP    WIND        PRES    VSBY  WAVE
                 AIR SEA DIR/SP/G                  HT/PER
                 (F)     (DEG/KT/KT) (MB)    (MI)  (FT/S)
CALUMET HARBOR    51     140/  9/ 15  994.4F
MICHIGAN CITY     51     110/ 10/ 14   N/A
SAINT JOSEPH      51      80/  1/  6  998.3F
SOUTH LAKE BUOY   46 42  130/ 14/ 14  998.1F         2/ 4

$$
&&


USA.gov is the U.S. government's official web portal to all federal, state and local government web resources and services.